GPRO Georgia

Formula 1 online manager


    Season 29, Race 17: Melbourne GP (Australia)

    Share
    avatar
    mrfantom
    Admin

    Posts : 211
    Join date : 01.09.11
    Age : 27
    Location : Tbilisi

    Season 29, Race 17: Melbourne GP (Australia)

    Post by mrfantom on Sun Mar 11, 2012 5:21 pm




    ადგილმდებარეობა: ავსტრალია
    თარიღი: 9 მარტი, 2012 წ.

    ტრასის პარამეტრები:
    სარბოლო დისტანცია: 307.6 კმ.
    წრეების რაოდენობა: 58
    წრის სიგრძე: 5.303 კმ
    საშუალო სიჩქარე: 220.25 კმ/სთ.
    ჩატარებული რბოლები: 12
    მოსახვევების რაოდენობა: 17
    პიტზე შესვლა/გამოსვლის დრო: 16.5 წმ.

    სიმძლავრე: 12
    მართვადობა: 15
    აჩქარება: 10

    დამწოლი ძალა: საშუალო
    გასწრება: რთული
    დაკიდების სიხისტე: რბილი
    საწვავის ხარჯი: საშუალო
    საბურავების ცვეთა: საშუალო
    მოჭიდების ხარისხი: დაბალი

    პრაქტიკა/კვალიფიკაცია 1

    ტემპ: 11°C
    ტენიანობა: 29%
    კვალიფიკაცია 2/რბოლის სტარტი

    ტემპ: 14°C
    ტენიანობა: 30%
    სტარტი - 0ს30წთ
    ტემპ: 16°-20°
    ტენიანობა: 32%-40%
    წვიმის ალბათობა: 0%
    0ს30წთ - 1ს
    ტემპ: 17°-21°
    ტენიანობა: 33%-41%
    წვიმის ალბათობა: 0%
    1ს - 1ს30წთ
    ტემპ: 17°-21°
    ტენიანობა: 32%-40%
    წვიმის ალბათობა: 0%-10%
    1ს30წთ - 2ს
    ტემპ: 16°-21°
    ტენიანობა: 31%-39%
    წვიმის ალბათობა: 0%-5%
    avatar
    mrfantom
    Admin

    Posts : 211
    Join date : 01.09.11
    Age : 27
    Location : Tbilisi

    Re: Season 29, Race 17: Melbourne GP (Australia)

    Post by mrfantom on Sun Mar 11, 2012 5:29 pm

    Lap information

    Lap Lap time Pos Tyres Weather Temp Hum Events
    0 - 1 Soft Partially Cloudy 14° 30% -
    1 1:39.587 1 Soft Partially Cloudy 14° 30% -
    2 1:38.203 1 Soft Partially Cloudy 14° 30% -
    3 1:38.013 1 Soft Partially Cloudy 14° 30% -
    4 1:37.757 2 Soft Partially Cloudy 14° 30% -
    5 1:37.613 4 Soft Partially Cloudy 14° 31% -
    6 1:37.372 4 Soft Partially Cloudy 14° 31% -
    7 1:37.214 4 Soft Partially Cloudy 14° 31% -
    8 1:37.336 4 Soft Partially Cloudy 14° 32% -
    9 1:37.345 4 Soft Partially Cloudy 14° 32% -
    10 1:37.168 4 Soft Partially Cloudy 14° 32% -
    11 1:37.048 4 Soft Partially Cloudy 15° 32% -
    12 1:37.022 4 Soft Partially Cloudy 15° 32% -
    13 1:36.949 4 Soft Partially Cloudy 16° 32% -
    14 1:36.827 4 Soft Partially Cloudy 16° 32% -
    15 1:36.816 4 Soft Partially Cloudy 16° 32% -
    16 1:36.701 3 Soft Partially Cloudy 16° 32% -
    17 1:36.482 3 Soft Partially Cloudy 16° 32% -
    18 1:36.631 3 Soft Partially Cloudy 16° 32% -
    19 1:44.650 4 Soft Partially Cloudy 16° 32% Pit
    20 2:10.036 9 Soft Partially Cloudy 16° 32% -
    21 1:38.137 5 Soft Partially Cloudy 16° 33% -
    22 1:37.620 5 Soft Partially Cloudy 17° 33% -
    23 1:37.537 5 Soft Partially Cloudy 17° 33% -
    24 1:37.458 5 Soft Partially Cloudy 17° 33% -
    25 1:37.298 5 Soft Partially Cloudy 18° 33% -
    26 1:37.249 5 Soft Partially Cloudy 18° 33% -
    27 1:37.119 5 Soft Partially Cloudy 19° 33% -
    28 1:37.073 5 Soft Partially Cloudy 18° 33% -
    29 1:37.184 5 Soft Partially Cloudy 17° 33% -
    30 1:36.988 4 Soft Partially Cloudy 17° 33% -
    31 1:36.924 4 Soft Partially Cloudy 17° 33% -
    32 1:36.872 3 Soft Partially Cloudy 17° 33% -
    33 1:36.764 3 Soft Partially Cloudy 17° 33% -
    34 1:36.713 3 Soft Partially Cloudy 17° 33% -
    35 1:36.492 3 Soft Partially Cloudy 17° 33% -
    36 1:36.558 3 Soft Partially Cloudy 17° 33% -
    37 1:36.486 3 Soft Partially Cloudy 17° 33% -
    38 1:44.753 4 Soft Partially Cloudy 17° 33% Pit
    39 2:13.582 9 Soft Partially Cloudy 17° 33% -
    40 1:39.526 8 Soft Partially Cloudy 17° 33% -
    41 1:37.379 4 Soft Partially Cloudy 17° 33% -
    42 1:37.408 4 Soft Cloudy 17° 33% -
    43 1:37.336 4 Soft Cloudy 17° 33% -
    44 1:37.254 4 Soft Cloudy 17° 32% -
    45 1:37.192 4 Soft Cloudy 17° 32% -
    46 1:37.259 4 Soft Cloudy 17° 32% -
    47 1:36.961 4 Soft Cloudy 17° 32% -
    48 1:37.124 4 Soft Cloudy 17° 32% -
    49 1:36.868 3 Soft Cloudy 17° 32% -
    50 1:36.797 3 Soft Cloudy 17° 32% -
    51 1:36.706 3 Soft Cloudy 17° 32% -
    52 1:36.702 3 Soft Cloudy 17° 32% -
    53 1:36.701 3 Soft Cloudy 17° 32% -
    54 1:36.553 3 Soft Cloudy 17° 32% -
    55 1:36.455 3 Soft Cloudy 17° 32% -
    56 1:36.256 3 Soft Cloudy 17° 32% -
    57 1:44.746 3 Soft Cloudy 17° 32% Pit
    58 2:16.135 9 Soft Cloudy 17° 31% -

    Risks used
    Overtake Defend Clear Malfunct
    0 0 0 0

    Setup used
    FWing RWing Eng Bra Gear Susp
    382 520 707 600 704 406



    Start fuel: 75 litersPit Pitstop reason Tyres condition
    Fuel left Refilled to Pit time
    Stop 1
    (Lap 19) No more fuel was left 21% 1% 75 liters 23.426s
    Stop 2
    (Lap 38) No more fuel was left 18% 1% 75 liters 26.955s
    Stop 3
    (Lap 57) No more fuel was left 18% 1% 20 liters 30.658s



    Tyres condition after finish: 96%

    Fuel left in the car after finish: 16 liters

    GiorgiQartveli

    Posts : 12
    Join date : 08.02.12

    Re: Season 29, Race 17: Melbourne GP (Australia)

    Post by GiorgiQartveli on Sun Mar 11, 2012 6:17 pm

    Lap Lap time Pos Tyres Weather Temp Hum Events
    0 - 4 Medium Partially Cloudy 14° 30% -
    1 1:45.557 8 Medium Partially Cloudy 14° 30% -
    2 1:39.362 8 Medium Partially Cloudy 14° 30% -
    3 1:38.594 8 Medium Partially Cloudy 14° 30% -
    4 1:38.534 8 Medium Partially Cloudy 14° 30% -
    5 1:38.825 8 Medium Partially Cloudy 14° 31% -
    6 1:38.381 9 Medium Partially Cloudy 14° 31% -
    7 1:38.706 9 Medium Partially Cloudy 14° 31% -
    8 1:38.227 9 Medium Partially Cloudy 14° 32% -
    9 1:38.130 9 Medium Partially Cloudy 14° 32% -
    10 1:38.359 9 Medium Partially Cloudy 14° 32% -
    11 1:38.251 9 Medium Partially Cloudy 15° 32% -
    12 1:37.914 9 Medium Partially Cloudy 15° 32% -
    13 1:37.605 8 Medium Partially Cloudy 16° 32% -
    14 1:38.094 7 Medium Partially Cloudy 16° 32% -
    15 1:37.758 6 Medium Partially Cloudy 16° 32% -
    16 1:38.002 5 Medium Partially Cloudy 16° 32% -
    17 1:37.870 5 Medium Partially Cloudy 16° 32% -
    18 1:37.649 5 Medium Partially Cloudy 16° 32% -
    19 1:37.545 5 Medium Partially Cloudy 16° 32% -
    20 1:45.405 6 Medium Partially Cloudy 16° 32% Pit
    21 2:15.124 11 Medium Partially Cloudy 16° 33% -
    22 1:39.120 11 Medium Partially Cloudy 17° 33% -
    23 1:38.601 10 Medium Partially Cloudy 17° 33% -
    24 1:38.641 9 Medium Partially Cloudy 17° 33% -
    25 1:38.655 9 Medium Partially Cloudy 18° 33% -
    26 1:37.971 9 Medium Partially Cloudy 18° 33% -
    27 1:38.495 9 Medium Partially Cloudy 19° 33% -
    28 1:38.147 8 Medium Partially Cloudy 18° 33% -
    29 1:38.397 7 Medium Partially Cloudy 17° 33% -
    30 1:38.328 6 Medium Partially Cloudy 17° 33% -
    31 1:37.979 5 Medium Partially Cloudy 17° 33% -
    32 1:38.250 5 Medium Partially Cloudy 17° 33% -
    33 1:38.011 5 Medium Partially Cloudy 17° 33% -
    34 1:37.909 5 Medium Partially Cloudy 17° 33% -
    35 1:37.449 5 Medium Partially Cloudy 17° 33% -
    36 1:37.917 5 Medium Partially Cloudy 17° 33% -
    37 1:43.356 4 Medium Partially Cloudy 17° 33% Driver mistake
    38 1:37.447 5 Medium Partially Cloudy 17° 33% -
    39 1:36.960 5 Medium Partially Cloudy 17° 33% -
    40 1:45.362 7 Medium Partially Cloudy 17° 33% Pit
    41 2:16.168 9 Medium Partially Cloudy 17° 33% -
    42 1:39.534 8 Medium Cloudy 17° 33% -
    43 1:39.053 8 Medium Cloudy 17° 33% -
    44 1:38.488 8 Medium Cloudy 17° 32% -
    45 1:38.835 8 Medium Cloudy 17° 32% -
    46 1:38.716 7 Medium Cloudy 17° 32% -
    47 1:38.846 7 Medium Cloudy 17° 32% -
    48 1:38.445 6 Medium Cloudy 17° 32% -
    49 1:38.142 6 Medium Cloudy 17° 32% -
    50 1:38.458 6 Medium Cloudy 17° 32% -
    51 1:37.890 6 Medium Cloudy 17° 32% -
    52 1:38.282 6 Medium Cloudy 17° 32% -
    53 1:38.041 6 Medium Cloudy 17° 32% -
    54 1:38.159 6 Medium Cloudy 17° 32% -
    55 1:37.596 6 Medium Cloudy 17° 32% -
    56 1:37.459 6 Medium Cloudy 17° 32% -
    57 1:37.990 5 Medium Cloudy 17° 32% -
    58 1:37.869 5 Medium Cloudy 17° 31%




    Risks used
    Overtake Defend Clear Malfunct
    10 10 15 5

    Setup used
    FWing RWing Eng Bra Gear Susp
    450 600 700 502 702 510

    Start fuel: 80 liters

    Pit Pitstop reason Tyres condition
    Fuel left Refilled to Pit time
    Stop 1
    (Lap 20) No more fuel was left 33% 0% 80 liters 27.677s
    Stop 2
    (Lap 40) No more fuel was left 31% 0% 90 liters 28.025s

    Tyres condition after finish: 38%

    Fuel left in the car after finish: 18 liters

    Sponsored content

    Re: Season 29, Race 17: Melbourne GP (Australia)

    Post by Sponsored content


      Current date/time is Sat Jun 24, 2017 2:10 pm